Wind_Speed
32 33 34 36 38 40 43 44 45 46 46 45 43 41 39 38 39 37 31 29 27 31 31 29 31 29 30 38 38 37 42 51 52 47 47 36 30 17 5 11 17 33 25 12 14
34 36 38 40 43 44 46 46 46 45 43 40 39 38 39 37 36 34 33 31 28 28 31 28 27 27 34 37 41 44 53 56 51 47 44 30 28 11 6 10 22 30 21 19 14
37 38 41 44 46 46 46 43 37 32 30 27 27 29 30 32 33 31 35 37 31 27 24 28 29 34 38 38 47 49 58 57 27 38 44 35 34 13 12 8 16 20 23 25 13
40 42 44 46 46 44 40 36 31 28 26 27 27 29 30 28 17 16 22 26 27 32 26 25 31 37 39 44 46 49 51 46 49 33 37 39 31 17 20 15 14 14 13 17 11
45 44 45 46 43 37 33 29 26 26 27 28 25 27 28 26 9 21 21 21 20 28 25 26 30 36 38 41 40 50 47 45 42 37 39 35 38 22 26 20 10 20 22 17 21
46 45 47 46 38 34 29 25 27 30 29 28 26 25 24 23 10 18 26 26 24 26 26 25 33 33 31 28 38 28 42 43 42 39 35 38 36 22 29 29 15 23 26 19 21
46 46 46 42 33 32 28 25 27 32 25 25 27 21 16 19 17 11 24 33 25 25 21 16 24 33 21 28 33 26 18 23 39 35 36 29 33 43 29 23 16 19 30 24 28
46 46 45 37 30 30 29 25 28 26 22 23 22 18 12 19 15 11 21 27 29 26 22 15 24 28 26 27 19 26 27 23 30 33 28 25 41 49 29 22 12 16 30 30 30
45 46 44 34 28 30 32 27 26 19 20 25 16 11 16 16 15 13 18 18 31 20 23 22 20 21 22 22 18 21 22 33 25 29 26 34 44 42 31 24 15 21 25 34 27
45 45 42 32 26 31 30 29 23 17 16 22 12 6 18 24 25 11 8 16 23 21 25 20 18 25 27 24 26 26 31 23 25 27 28 37 45 33 28 26 21 16 24 31 35
44 44 40 31 27 31 29 25 27 19 13 20 10 11 16 23 28 2 11 23 20 19 24 24 27 34 36 33 24 19 12 17 15 24 23 35 34 29 28 27 21 20 20 26 26
43 41 38 32 29 30 29 28 25 18 12 21 14 16 17 21 15 3 12 18 6 13 24 17 24 23 26 28 25 17 12 14 8 24 21 27 31 27 22 27 20 24 26 24 21
42 39 37 32 27 26 27 27 23 15 7 20 14 17 19 13 13 3 13 9 9 6 13 17 15 20 19 22 21 25 19 18 12 18 20 20 27 26 25 24 21 27 22 20 19
40 35 33 29 23 24 26 24 20 9 2 12 16 13 17 15 12 2 10 7 9 8 13 10 9 21 22 21 21 27 22 16 16 10 7 18 6 24 25 28 25 26 24 21 21
36 29 35 31 24 26 26 27 19 7 4 11 14 20 18 16 13 4 7 1 5 8 15 10 15 18 24 23 23 20 17 17 15 15 16 15 12 29 23 27 31 28 26 20 20
34 25 31 28 24 24 25 26 15 5 4 11 15 23 23 18 17 6 10 1 5 6 13 8 11 12 17 19 14 15 11 10 11 15 9 23 10 17 29 27 30 31 25 21 21
32 24 31 30 26 25 24 22 5 7 18 19 24 25 14 14 13 5 9 6 2 2 5 10 13 13 14 19 18 18 11 2 3 4 7 21 11 26 21 29 31 35 33 28 22
30 23 28 26 25 26 26 16 6 16 16 25 25 13 13 10 7 3 3 7 5 4 2 5 4 21 19 24 19 23 17 6 6 5 6 7 8 32 31 30 29 26 26 29 27
31 23 26 24 21 24 27 15 11 18 21 26 17 11 10 8 3 2 2 7 7 8 6 4 4 9 4 22 21 10 21 14 2 2 1 5 23 36 34 33 31 34 19 30 29
33 23 24 23 17 20 25 14 20 23 22 18 10 11 7 9 5 4 6 4 6 5 3 2 4 8 8 13 11 3 11 7 3 2 3 7 17 23 33 39 35 39 28 29 36
34 25 25 18 17 17 22 20 24 28 24 12 11 12 12 12 7 8 7 3 5 5 7 5 4 7 14 17 19 15 11 4 6 4 1 2 14 33 38 29 40 35 25 26 37
38 22 27 21 20 15 16 19 21 26 32 10 12 11 14 22 16 11 9 4 2 4 4 3 3 6 25 20 21 11 13 18 8 6 9 6 10 6 11 28 27 31 23 24 33
42 25 23 15 19 16 15 10 16 21 26 24 15 13 15 24 9 7 14 12 10 3 4 2 3 4 12 13 14 13 14 11 20 14 14 6 9 17 11 15 31 24 21 32 31
40 36 30 17 17 17 19 12 15 20 24 24 20 12 19 16 13 8 14 2 12 9 6 7 6 4 5 14 15 14 12 8 16 13 8 6 15 11 7 16 24 35 35 38 42
38 30 28 28 24 18 10 14 15 17 18 22 19 18 20 15 17 2 9 3 9 9 7 6 7 9 10 13 15 17 15 10 17 15 8 8 7 5 4 21 33 34 33 36 37
38 36 32 24 22 21 15 17 14 16 18 18 24 23 24 15 14 19 14 12 6 8 1 3 6 10 11 9 17 19 13 16 18 17 8 5 2 3 19 19 32 31 27 26 24
39 34 34 31 24 22 13 14 16 19 14 18 23 26 25 18 17 15 15 16 13 13 9 6 9 11 8 8 6 12 22 18 16 20 14 10 11 10 24 27 25 24 23 21 16
Wind_Direction
345 343 338 331 325 320 315 311 308 304 301 297 295 290 283 275 271 270 267 259 251 247 246 237 230 226 220 215 210 211 216 224 225 224 226 219 222 225 324 250 220 199 221 221 199
347 342 337 331 327 323 318 314 311 309 307 305 298 291 283 277 270 268 268 260 253 246 245 232 228 215 214 212 210 207 220 226 226 226 232 216 211 252 279 215 189 187 212 209 197
346 341 338 334 330 327 323 324 331 327 322 321 318 311 300 292 282 265 254 254 242 238 234 229 219 213 209 205 211 212 223 223 230 227 228 227 212 248 232 273 251 223 199 197 255
349 345 341 336 332 330 334 339 337 335 334 333 327 314 308 304 303 285 265 260 252 236 217 219 212 213 211 209 209 216 224 226 230 225 221 224 235 239 216 227 290 218 212 207 181
351 348 343 339 338 339 343 345 346 344 336 330 325 319 316 313 306 241 234 230 229 220 212 211 211 212 212 212 208 218 221 227 233 228 226 222 221 241 213 221 262 214 198 206 187
352 350 345 343 343 344 344 347 347 342 329 331 333 330 321 317 304 252 242 227 224 218 196 200 202 208 214 214 208 221 229 230 231 230 228 224 226 247 206 211 255 227 214 209 205
353 350 347 345 347 350 344 340 343 342 336 339 338 339 340 335 327 270 236 221 218 217 195 167 200 195 199 206 210 199 220 222 226 226 229 227 239 220 210 203 249 235 215 216 220
353 350 347 346 347 345 347 340 340 338 343 346 340 349 354 341 325 296 246 223 204 207 194 145 162 198 199 184 190 214 222 218 217 216 215 217 233 211 210 209 243 213 202 211 224
354 351 348 346 348 348 346 340 338 342 354 349 347 2 6 356 347 320 286 229 198 188 168 156 163 190 185 196 198 198 217 219 217 200 200 209 228 215 206 200 227 223 227 231 225
353 352 348 347 345 344 346 339 351 1 350 351 358 12 4 360 351 319 282 183 168 185 166 170 197 194 197 193 206 200 215 212 217 199 197 207 229 228 210 206 225 249 235 228 219
353 351 349 349 345 346 344 343 357 9 2 7 2 356 344 344 345 282 172 169 178 170 171 188 199 198 198 195 197 196 202 230 216 195 204 214 239 234 220 209 230 252 244 222 231
352 352 350 350 347 348 346 356 357 354 21 16 17 355 353 350 8 103 171 177 163 170 178 186 204 202 208 204 211 202 212 205 201 192 213 219 238 239 230 221 233 254 249 238 243
352 351 352 350 349 347 354 359 354 350 6 26 6 11 360 340 335 143 191 172 228 231 173 190 199 191 188 202 214 207 210 197 218 192 224 246 258 239 230 224 236 247 250 239 249
353 349 353 349 351 353 356 358 348 345 358 28 19 3 341 346 347 194 148 184 210 199 192 203 186 194 193 198 199 213 202 216 222 259 275 231 258 236 229 227 236 237 246 235 237
356 354 351 355 1 352 359 7 353 348 29 0 4 359 333 352 333 274 201 155 203 182 187 182 201 198 203 200 193 219 213 233 242 265 277 269 243 249 239 237 234 232 245 243 236
357 355 355 6 6 357 359 6 357 342 335 353 336 339 342 360 353 208 203 144 150 175 210 204 184 218 216 206 220 225 229 233 256 262 243 260 244 262 230 229 234 238 238 248 245
360 358 359 9 8 357 2 7 12 36 339 336 337 346 354 8 358 145 180 190 129 144 222 215 226 232 204 206 197 205 216 179 188 182 218 235 232 236 228 229 232 235 241 244 245
5 0 5 13 7 357 1 17 35 345 340 338 344 12 10 359 31 116 182 209 195 218 315 246 249 217 199 204 200 210 202 178 168 180 245 253 215 231 225 214 224 231 250 247 243
7 1 5 13 5 355 358 31 352 337 335 335 351 355 11 353 22 169 222 233 227 216 212 296 248 143 200 201 181 189 206 223 73 114 66 213 239 243 234 230 224 229 238 230 237
7 2 7 9 342 349 1 25 7 351 334 325 329 334 326 335 282 277 311 235 236 231 209 349 341 191 153 171 194 177 186 189 141 118 242 248 241 239 242 241 230 229 230 220 228
2 1 6 9 355 343 7 4 359 359 354 322 317 322 322 324 225 263 301 291 157 193 209 266 162 201 194 202 196 193 203 190 171 199 264 322 246 245 250 261 236 230 223 219 225
1 5 355 3 349 6 2 352 335 349 354 343 325 338 328 326 328 261 242 302 163 110 201 294 284 208 195 198 189 199 191 182 163 209 234 267 278 196 250 229 220 219 229 225 219
354 3 3 352 360 8 350 359 345 341 345 354 337 321 329 332 328 262 284 303 192 159 299 181 261 109 170 193 207 201 201 230 219 200 207 173 277 356 266 197 204 200 217 206 207
352 352 360 2 353 333 335 347 348 339 336 345 342 326 327 332 348 277 316 63 185 217 305 268 332 318 247 211 199 209 226 229 211 195 184 261 289 14 67 179 195 193 193 201 202
351 350 349 339 347 338 335 337 339 351 337 328 327 330 334 328 333 245 324 294 180 237 202 261 305 320 312 244 243 224 219 236 220 218 207 263 295 51 95 173 175 181 179 186 188
348 344 342 345 337 332 320 299 320 318 320 330 319 322 328 308 287 299 319 283 258 192 262 317 337 323 291 306 230 212 222 242 235 198 216 299 132 125 173 150 150 164 169 175 187
344 342 339 342 338 329 321 303 307 308 308 308 301 306 317 306 276 266 270 283 262 298 298 302 317 321 298 332 329 242 239 238 236 229 249 275 180 152 160 159 135 138 152 157 162
Height
3129 3125 3119 3113 3108 3101 3095 3089 3085 3081 3077 3073 3070 3067 3066 3065 3063 3063 3068 3067 3068 3068 3069 3075 3078 3085 3090 3093 3096 3102 3101 3095 3098 3105 3106 3122 3130 3139 3142 3137 3138 3140 3147 3149 3149
3126 3120 3114 3107 3100 3093 3087 3080 3074 3069 3064 3060 3057 3054 3052 3052 3053 3058 3057 3057 3059 3059 3062 3068 3072 3077 3080 3087 3088 3089 3086 3085 3094 3103 3109 3118 3125 3134 3139 3140 3138 3137 3139 3148 3147
3123 3116 3109 3101 3093 3085 3078 3071 3065 3060 3056 3053 3050 3047 3044 3041 3042 3044 3042 3044 3047 3050 3056 3059 3065 3066 3069 3078 3078 3079 3074 3086 3090 3099 3107 3112 3119 3130 3131 3136 3139 3139 3139 3144 3145
3119 3112 3104 3095 3087 3078 3071 3066 3060 3055 3051 3048 3045 3040 3037 3037 3041 3037 3039 3040 3041 3043 3047 3051 3056 3058 3062 3065 3071 3072 3076 3083 3088 3095 3101 3105 3113 3124 3127 3131 3137 3137 3140 3143 3144
3115 3107 3099 3090 3081 3073 3067 3062 3057 3052 3048 3044 3039 3035 3032 3031 3034 3030 3030 3032 3034 3034 3039 3044 3050 3053 3057 3061 3069 3067 3074 3080 3086 3092 3096 3101 3105 3115 3120 3129 3132 3136 3137 3141 3144
3111 3102 3094 3085 3077 3070 3064 3060 3055 3050 3044 3040 3036 3032 3028 3025 3027 3024 3024 3027 3027 3029 3028 3036 3041 3050 3054 3059 3064 3066 3071 3076 3080 3086 3092 3096 3101 3110 3112 3121 3125 3129 3132 3137 3143
3107 3098 3089 3081 3075 3068 3062 3058 3053 3047 3041 3037 3033 3028 3025 3022 3019 3017 3017 3019 3023 3026 3026 3028 3040 3045 3053 3057 3061 3064 3067 3070 3072 3081 3086 3094 3095 3095 3107 3114 3118 3121 3126 3131 3134
3104 3096 3087 3078 3073 3067 3061 3055 3051 3045 3039 3034 3029 3026 3023 3020 3016 3014 3011 3013 3018 3021 3025 3029 3034 3044 3046 3052 3055 3060 3063 3065 3068 3075 3083 3092 3084 3088 3103 3109 3112 3115 3120 3123 3126
3101 3093 3084 3076 3070 3065 3058 3053 3049 3042 3037 3033 3030 3025 3023 3020 3015 3011 3007 3011 3014 3020 3023 3027 3035 3040 3046 3048 3052 3054 3054 3059 3067 3072 3081 3083 3076 3087 3098 3105 3106 3111 3115 3118 3121
3098 3090 3082 3074 3069 3063 3057 3051 3046 3040 3036 3033 3028 3027 3024 3019 3013 3009 3006 3008 3014 3017 3022 3026 3031 3035 3040 3044 3043 3048 3051 3055 3062 3070 3075 3076 3070 3084 3094 3101 3102 3106 3110 3113 3117
3096 3088 3080 3072 3066 3061 3057 3049 3044 3039 3036 3032 3029 3027 3023 3019 3010 3009 3007 3010 3013 3018 3021 3025 3026 3027 3032 3039 3044 3049 3052 3055 3061 3067 3072 3070 3072 3082 3088 3095 3097 3100 3104 3108 3113
3093 3085 3079 3072 3064 3059 3053 3045 3039 3038 3035 3030 3028 3025 3022 3018 3015 3012 3011 3014 3015 3017 3018 3022 3022 3030 3036 3041 3044 3046 3049 3053 3059 3064 3069 3070 3069 3079 3085 3089 3093 3095 3099 3104 3108
3092 3083 3076 3070 3063 3058 3051 3044 3039 3036 3035 3032 3029 3026 3022 3020 3017 3015 3015 3015 3017 3019 3019 3021 3026 3030 3034 3040 3043 3044 3046 3051 3056 3061 3066 3069 3069 3075 3082 3085 3088 3091 3093 3098 3102
3091 3081 3076 3069 3065 3057 3051 3044 3040 3037 3036 3035 3031 3028 3024 3021 3019 3017 3017 3018 3017 3020 3022 3023 3026 3028 3032 3035 3041 3040 3046 3051 3056 3062 3064 3068 3065 3069 3077 3080 3084 3088 3090 3095 3100
3091 3082 3074 3066 3062 3056 3052 3044 3040 3038 3038 3037 3032 3028 3025 3022 3020 3018 3018 3018 3018 3020 3023 3024 3026 3028 3029 3032 3037 3042 3048 3051 3056 3060 3063 3064 3065 3062 3073 3076 3080 3084 3089 3091 3098
3090 3083 3076 3069 3062 3057 3049 3044 3041 3041 3038 3036 3032 3029 3025 3020 3019 3017 3019 3021 3020 3020 3021 3023 3025 3026 3028 3031 3038 3044 3048 3051 3055 3059 3061 3059 3063 3058 3066 3071 3076 3080 3085 3089 3093
3088 3082 3074 3067 3062 3057 3050 3046 3046 3045 3045 3039 3031 3027 3025 3023 3021 3020 3021 3022 3022 3024 3023 3024 3024 3024 3026 3031 3036 3041 3046 3050 3056 3058 3056 3055 3059 3053 3060 3067 3070 3074 3079 3084 3089
3088 3082 3075 3068 3063 3059 3054 3049 3047 3047 3044 3038 3031 3028 3027 3025 3024 3023 3023 3023 3023 3024 3025 3025 3024 3022 3024 3028 3034 3038 3043 3043 3050 3055 3048 3052 3053 3045 3056 3063 3065 3071 3075 3079 3084
3087 3081 3075 3069 3064 3059 3056 3051 3053 3049 3044 3038 3032 3027 3027 3027 3026 3025 3024 3024 3023 3024 3026 3025 3021 3021 3022 3027 3035 3037 3041 3046 3046 3050 3051 3050 3048 3046 3050 3057 3060 3065 3069 3073 3078
3086 3081 3074 3068 3065 3062 3058 3054 3052 3048 3043 3040 3036 3032 3027 3026 3027 3025 3023 3023 3024 3023 3025 3025 3023 3024 3027 3031 3034 3037 3042 3045 3048 3054 3054 3046 3045 3042 3046 3048 3057 3059 3065 3070 3077
3084 3079 3075 3070 3066 3062 3058 3055 3051 3049 3045 3042 3039 3034 3030 3024 3022 3026 3024 3024 3022 3023 3025 3026 3027 3027 3028 3029 3031 3037 3038 3044 3047 3050 3053 3052 3040 3042 3042 3044 3050 3056 3060 3065 3073
3082 3077 3071 3067 3067 3061 3058 3056 3053 3048 3044 3039 3038 3036 3033 3030 3025 3023 3021 3021 3022 3023 3023 3024 3026 3026 3026 3029 3033 3037 3039 3044 3045 3047 3047 3049 3041 3039 3038 3035 3042 3049 3055 3060 3068
3079 3077 3072 3067 3063 3060 3057 3054 3051 3047 3043 3040 3037 3036 3033 3031 3026 3022 3022 3020 3022 3022 3023 3023 3023 3024 3027 3030 3031 3035 3038 3040 3041 3043 3045 3048 3039 3037 3031 3029 3037 3046 3051 3057 3063
3079 3072 3069 3067 3063 3059 3052 3050 3048 3045 3042 3038 3036 3032 3031 3030 3026 3023 3020 3019 3020 3022 3021 3022 3021 3021 3025 3025 3029 3032 3034 3037 3040 3040 3042 3038 3036 3036 3031 3030 3033 3040 3046 3051 3058
3079 3076 3070 3064 3060 3057 3054 3050 3046 3043 3040 3037 3034 3032 3029 3027 3024 3023 3021 3019 3019 3021 3020 3021 3020 3020 3021 3022 3025 3029 3031 3033 3035 3037 3037 3038 3038 3033 3031 3031 3034 3040 3045 3049 3055
3078 3072 3067 3062 3058 3053 3050 3047 3043 3039 3038 3035 3031 3029 3027 3025 3024 3019 3021 3021 3019 3018 3019 3019 3021 3019 3019 3019 3021 3024 3027 3030 3031 3032 3032 3035 3036 3039 3038 3040 3040 3044 3048 3053 3058
3074 3072 3063 3060 3054 3049 3046 3042 3039 3038 3036 3032 3028 3026 3023 3020 3018 3017 3017 3018 3018 3017 3017 3019 3019 3019 3017 3018 3019 3023 3023 3026 3028 3028 3028 3029 3036 3040 3039 3043 3041 3044 3049 3052 3057